Miscellaneous Local Product
Issued by NWS Hastings, NE

Home | Current Version | Previous Version | Text Only | Print | Product List | Glossary Off
Versions: 1 2 3 4 5 6 7 8 9 10 11 12 13 14 15 16 17 18 19 20 21 22 23 24 25 26 27 28 29 30 31 32 33 34 35 36 37 38 39 40 41 42 43 44 45 46 47 48 49 50

000
AXUS43 KGID 070802
MISGRI

GID CWA HOURLY WEATHER ROUNDUP
NATIONAL WEATHER SERVICE HASTINGS NE
300 AM CDT TUE JUL 07 2015

NOTE: "FAIR" INDICATES FEW OR NO CLOUDS BELOW 12,000 FEET WITH NO
SIGNIFICANT WEATHER AND/OR OBSTRUCTIONS TO VISIBILITY.

...SOUTH CENTRAL NEBRASKA...

CITY           SKY/WX    TMP DP  RH WIND       PRES   REMARKS
GRAND ISLAND   CLEAR     57  55  93 N7        30.16R FOG
HASTINGS       CLEAR     59  55  87 N7        30.15R FOG
KEARNEY        CLEAR     57  52  82 N8        30.17R
ORD            CLEAR     52  50  93 N6        30.16S FOG
YORK           CLEAR     59  57  94 N8        30.13S FOG
AURORA         CLEAR     58  58  99 N7        30.15R FOG
LEXINGTON      CLEAR     56  54  92 CALM      30.19R FOG
HOLDREGE       CLEAR     56  53  89 N5        30.17R
HEBRON         CLEAR     63  56  79 N10       30.10S HAZE

...NEBRASKA PANHANDLE...

CITY           SKY/WX    TMP DP  RH WIND       PRES   REMARKS
CHADRON        PTCLDY    59  55  87 SE3       30.20F
ALLIANCE       MOCLDY    55  53  93 SE6       30.23S
SCOTTSBLUFF    CLOUDY    62  55  77 SE7       30.23F HAZE
SIDNEY         CLOUDY    60  54  80 SE5       30.25F HAZE

...WESTERN AND NORTH CENTRAL NEBRASKA...

CITY           SKY/WX    TMP DP  RH WIND       PRES   REMARKS
VALENTINE      CLEAR     55  53  93 CALM      30.20R
AINSWORTH      CLEAR     56  56  97 CALM      30.19F
ONEILL         CLEAR     55  54  97 CALM      30.18R
BROKEN BOW     CLEAR     55  52  89 CALM      30.18S FOG
IMPERIAL       MOCLDY    59  53  80 SE3       30.23R
NORTH PLATTE   CLEAR     54  51  90 NE5       30.21R
MCCOOK         PTCLDY    60  54  80 CALM      30.21R

...EASTERN NEBRASKA...

CITY           SKY/WX    TMP DP  RH WIND       PRES   REMARKS
NORFOLK        CLEAR     56  54  93 CALM      30.14F FOG
SO SIOUX CITY  CLEAR     56  51  84 N6        30.14R
TEKAMAH        CLEAR     57  54  89 N7        30.11S
ALBION         CLEAR     57  53  85 N3        30.17R
OMAHA EPPLEY   CLEAR     59  53  80 N8        30.09R
OFFUTT AFB     CLEAR     62  51  69 N8G17     30.07R
MILLARD        CLEAR     63  51  66 N6        30.09S
LINCOLN        CLEAR     60  56  86 N8        30.11R FOG
NEBRASKA CITY  CLEAR     63  54  72 N9        30.07S
BEATRICE       CLEAR     63  57  81 N8        30.09R
FALLS CITY     CLOUDY    66  60  81 N12       30.02S HAZE

...NORTHERN KANSAS...

CITY           SKY/WX    TMP DP  RH WIND       PRES   REMARKS
GOODLAND       CLOUDY    60  53  77 E5        30.22F
HILL CITY      PTCLDY    61  55  81 N10       30.16S HAZE
NORTON         SUNNY     55  48  76 NW9       30.17S
PHILLIPSBURG   CLEAR     64  55  72 N8        30.15R HAZE
SMITH CENTER   CLEAR     61  55  82 N8        30.13S HAZE
HAYS           CLOUDY    66  54  63 N14       30.12S
RUSSELL        CLOUDY    67  59  75 N13       30.09S HAZE
CONCORDIA      CLOUDY    64  58  80 N14       30.08S HAZE
SALINA         CLOUDY    70  61  73 N15       30.06R HAZE
TOPEKA         RAIN      63  62  97 NE6       30.01R FOG



USA.gov is the U.S. government's official web portal to all federal, state and local government web resources and services.